Date String (YYYY-MM-DD hh:mm:ss) UTC,Instrument flags,Ambient pressure (hPa),Sample flow (lpm),Bypass flow (lpm),Sample temperature (°C),Ambient temperature (°C),ASC tube jacket temperature (°C),LED temperature (°C),Box temperature (°C),Sample RH (%),Span deviation,Mass concentration (μg/m³),Mass concentration (μg/m³),Mass concentration (μg/m³)
DateTimeUTC,F1_M11,P_M11,Q1_M11,Q2_M11,T1_M11,T2_M11,T3_M11,T4_M11,T5_M11,U1_M11,ZSPAN_M11,X0_M11,X2_M11,X1_M11
2022-04-02 03:00:00,,0823.9,5.01,0.00,27.5,26.6,00.0,36.5,29.2,10.1,0000.0,0011.67,0004.26,0003.12
2022-04-02 03:01:00,,0823.9,4.99,0.00,27.5,26.6,00.0,36.5,29.2,10.1,0000.0,0011.95,0004.25,0003.12
2022-04-02 03:02:00,,0824.0,5.01,0.00,27.5,26.6,00.0,36.5,29.3,10.1,0000.0,0012.73,0004.25,0003.11
2022-04-02 03:03:00,,0824.0,5.00,0.00,27.5,26.6,00.0,36.5,29.3,10.1,0000.0,0013.01,0004.27,0003.10
2022-04-02 03:04:00,,0824.0,5.00,0.00,27.5,26.6,00.0,36.5,29.3,10.1,0000.0,0013.86,0004.24,0003.10
2022-04-02 03:05:00,,0824.0,5.00,0.00,27.5,26.7,00.0,36.5,29.3,10.1,0000.0,0014.12,0004.19,0003.07
2022-04-02 03:06:00,,0824.0,5.00,0.00,27.5,26.7,00.0,36.5,29.3,10.2,0000.0,0014.32,0004.10,0003.01
2022-04-02 03:07:00,,0823.9,5.01,0.00,27.5,26.7,00.0,36.5,29.3,10.2,0000.0,0013.91,0004.03,0002.95
2022-04-02 03:08:00,,0823.8,5.00,0.00,27.5,26.6,00.0,36.4,29.2,10.4,0000.0,0014.15,0004.00,0002.93
2022-04-02 03:09:00,,0823.8,5.00,0.00,27.4,26.6,00.0,36.4,29.2,10.4,0000.0,0014.43,0003.95,0002.89
2022-04-02 03:10:00,,0823.8,4.99,0.00,27.4,26.6,00.0,36.4,29.1,10.5,0000.0,0013.74,0003.90,0002.84
2022-04-02 03:11:00,,0823.9,5.01,0.00,27.4,26.6,00.0,36.4,29.1,10.5,0000.0,0013.37,0003.88,0002.81
2022-04-02 03:12:00,,0823.9,5.00,0.00,27.4,26.5,00.0,36.4,29.1,10.6,0000.0,0014.20,0003.84,0002.78
2022-04-02 03:13:00,,0823.8,4.99,0.00,27.4,26.5,00.0,36.4,29.1,10.6,0000.0,0013.97,0003.82,0002.75
2022-04-02 03:14:00,,0823.9,5.00,0.00,27.3,26.5,00.0,36.4,29.1,10.6,0000.0,0014.54,0003.78,0002.73
2022-04-02 03:15:00,,0823.9,4.99,0.00,27.3,26.5,00.0,36.4,29.1,10.7,0000.0,0014.14,0003.77,0002.71
2022-04-02 03:16:00,,0823.9,5.01,0.00,27.3,26.5,00.0,36.4,29.1,10.7,0000.0,0015.00,0003.79,0002.71
2022-04-02 03:17:00,,0823.9,5.00,0.00,27.3,26.5,00.0,36.3,29.0,10.7,0000.0,0015.02,0003.81,0002.72
2022-04-02 03:18:00,,0823.9,4.99,0.00,27.3,26.4,00.0,36.3,29.0,10.7,0000.0,0014.99,0003.84,0002.72
2022-04-02 03:19:00,,0824.0,5.02,0.00,27.2,26.4,00.0,36.3,29.0,10.8,0000.0,0014.56,0003.84,0002.71
2022-04-02 03:20:00,,0823.9,4.99,0.00,27.2,26.4,00.0,36.3,29.0,10.8,0000.0,0014.62,0003.85,0002.69
2022-04-02 03:21:00,,0824.0,5.00,0.00,27.2,26.4,00.0,36.3,28.9,10.8,0000.0,0015.41,0003.86,0002.68
2022-04-02 03:22:00,,0823.9,5.00,0.00,27.2,26.3,00.0,36.3,28.9,10.8,0000.0,0015.29,0003.86,0002.67
2022-04-02 03:23:00,,0823.9,5.01,0.00,27.1,26.3,00.0,36.2,28.9,10.9,0000.0,0014.29,0003.86,0002.65
2022-04-02 03:24:00,,0823.9,4.99,0.00,27.1,26.3,00.0,36.2,28.8,10.9,0000.0,0013.97,0003.79,0002.66
2022-04-02 03:25:00,,0823.9,5.00,0.00,27.1,26.2,00.0,36.2,28.8,10.9,0000.0,0013.00,0003.75,0002.65
2022-04-02 03:26:00,,0824.0,5.00,0.00,27.1,26.2,00.0,36.2,28.8,09.9,0000.0,0012.77,0003.77,0002.63
2022-04-02 03:27:00,,0824.0,5.00,0.00,27.1,26.2,00.0,36.2,28.7,10.9,0000.0,0011.69,0003.78,0002.61
2022-04-02 03:28:00,,0824.0,5.00,0.00,27.0,26.2,00.0,36.2,28.7,11.0,0000.0,0011.49,0003.78,0002.61
2022-04-02 03:29:00,,0824.0,5.01,0.00,27.0,26.2,00.0,36.1,28.8,11.1,0000.0,0011.45,0003.76,0002.60
2022-04-02 03:30:00,,0824.0,4.99,0.00,27.0,26.2,00.0,36.1,28.7,11.1,0000.0,0011.89,0003.81,0002.62
2022-04-02 03:31:00,,0824.1,5.01,0.00,27.0,26.2,00.0,36.1,28.7,11.1,0000.0,0011.88,0003.82,0002.64
2022-04-02 03:32:00,,0824.1,5.01,0.00,27.0,26.2,00.0,36.1,28.7,11.1,0000.0,0011.80,0003.83,0002.66
2022-04-02 03:33:00,,0824.1,5.00,0.00,27.0,26.1,00.0,36.1,28.7,11.1,0000.0,0011.52,0003.84,0002.67
2022-04-02 03:34:00,,0824.1,5.00,0.00,27.0,26.1,00.0,36.1,28.7,11.1,0000.0,0011.82,0003.86,0002.69
2022-04-02 03:35:00,,0824.1,4.99,0.00,27.0,26.1,00.0,36.1,28.7,11.2,0000.0,0011.54,0003.89,0002.70
2022-04-02 03:36:00,,0824.1,5.02,0.00,27.0,26.1,00.0,36.0,28.7,11.2,0000.0,0011.94,0003.92,0002.72
2022-04-02 03:37:00,,0824.1,5.00,0.00,27.0,26.1,00.0,36.0,28.8,11.2,0000.0,0013.34,0003.98,0002.74
2022-04-02 03:38:00,,0824.0,5.00,0.00,27.0,26.2,00.0,36.0,28.8,11.2,0000.0,0013.76,0004.03,0002.76
2022-04-02 03:39:00,,0824.1,5.01,0.00,27.0,26.2,00.0,36.0,28.8,11.2,0000.0,0014.12,0004.07,0002.78
2022-04-02 03:40:00,,0824.1,5.02,0.00,27.0,26.2,00.0,36.0,28.8,11.2,0000.0,0014.98,0004.08,0002.80
2022-04-02 03:41:00,,0824.0,5.00,0.00,27.0,26.2,00.0,36.0,28.8,11.2,0000.0,0014.69,0004.06,0002.80
2022-04-02 03:42:00,,0824.1,4.99,0.00,27.0,26.2,00.0,36.0,28.8,11.1,0000.0,0014.64,0004.11,0002.80
2022-04-02 03:43:00,,0824.1,5.00,0.00,27.0,26.2,00.0,36.0,28.8,11.2,0000.0,0014.40,0004.14,0002.81
2022-04-02 03:44:00,,0824.1,5.00,0.00,27.0,26.2,00.0,36.0,28.8,11.2,0000.0,0014.83,0004.13,0002.84
2022-04-02 03:45:00,,0824.1,5.02,0.00,27.0,26.2,00.0,36.0,28.8,11.2,0000.0,0014.71,0004.12,0002.84
2022-04-02 03:46:00,,0824.1,5.00,0.00,27.0,26.2,00.0,36.0,28.8,11.2,0000.0,0014.48,0004.09,0002.84
2022-04-02 03:47:00,,0824.1,5.00,0.00,27.0,26.1,00.0,36.0,28.8,11.2,0000.0,0014.17,0004.12,0002.85
2022-04-02 03:48:00,,0824.1,4.99,0.00,27.0,26.1,00.0,36.0,28.8,11.2,0000.0,0013.21,0004.03,0002.86
2022-04-02 03:49:00,,0824.1,5.00,0.00,27.0,26.1,00.0,36.0,28.8,11.2,0000.0,0013.94,0003.98,0002.87
2022-04-02 03:50:00,,0824.1,5.00,0.00,27.0,26.1,00.0,36.0,28.8,11.2,0000.0,0013.93,0004.00,0002.85
2022-04-02 03:51:00,,0824.1,5.02,0.00,27.0,26.1,00.0,36.0,28.8,11.2,0000.0,0013.81,0004.05,0002.86
2022-04-02 03:52:00,,0824.2,5.01,0.00,27.0,26.1,00.0,36.0,28.8,11.2,0000.0,0014.25,0004.05,0002.89
2022-04-02 03:53:00,,0824.2,5.00,0.00,27.0,26.2,00.0,36.0,28.8,11.2,0000.0,0014.25,0004.02,0002.89
2022-04-02 03:54:00,,0824.2,4.99,0.00,27.0,26.2,00.0,36.0,28.8,11.2,0000.0,0014.23,0004.07,0002.90
2022-04-02 03:55:00,,0824.3,5.00,0.00,27.1,26.2,00.0,36.0,28.9,11.1,0000.0,0013.77,0004.09,0002.91
2022-04-02 03:56:00,,0824.1,4.99,0.00,27.1,26.2,00.0,36.0,28.8,11.1,0000.0,0013.27,0004.07,0002.89
2022-04-02 03:57:00,,0824.1,4.99,0.00,27.1,26.2,00.0,36.0,28.9,11.1,0000.0,0013.62,0004.09,0002.90
2022-04-02 03:58:00,,0824.1,4.99,0.00,27.1,26.3,00.0,36.0,28.9,11.1,0000.0,0013.85,0004.13,0002.93
2022-04-02 03:59:00,,0824.2,5.01,0.00,27.1,26.3,00.0,36.0,28.9,11.1,0000.0,0013.90,0004.16,0002.95
